sat.trackr.live / text

‹ back to catalog

STARLINK-11317 [DTC]

NORAD 61248 · 2024-175F

PAYLOAD ACTIVE UNKNOWN

§ Identity

Operator
Country
US
Launch date
2024-09-25
Launch site
AFWTR
Launch vehicle
Mass (kg)
RCS (m²)

Purposes: comms

External: N2YO · Heavens-Above · Gunter

§ Orbital elements

Epoch: 2026-05-25T02:47:07.513152Z

Period
91.74 min
Inclination
53.1595°
Eccentricity
0.0000989
Mean motion
15.69706203 rev/d
Perigee alt
359.1 km
Apogee alt
360.4 km
Semi-major
6,737.9 km
B*
2.8268e-5
RAAN
39.2491°
Arg perigee
78.3490°
Mean anomaly
281.7639°
Rev number
9,537

§ Raw data

STARLINK-11317 [DTC]1 61248U 24175F   26145.11605918  .00002837  00000+0  28268-4 0  99982 61248  53.1595  39.2491 0000989  78.3490 281.7639 15.69706203 95375

JSON: /api/v1/satellites/61248 · /tle

For live sub-satellite position, see the globe view (requires WebGL).

§ Visibility from observer

Set your observer location to see the next 7 days of passes ≥ 10°. The values pass through the URL so the page stays shareable.

No JS? Fill the form by hand. The geolocation button needs JavaScript.